| time (UTC) | temp F | wind direction | speed knots | gust knots | rain 1hr in | rain 24hr in | rain mn in | humidity % | barometer mb |
| 20260504200514 | 60 | 186 | 1.7 | 6.1 | 0.00 | 0.00 | 0.00 | 49 | 1008.8 |
| 20260504200014 | 60 | 257 | 1.7 | 6.1 | 0.00 | 0.00 | 0.00 | 49 | 1008.8 |
| 20260504195513 | 59 | 289 | 1.7 | 6.1 | 0.00 | 0.00 | 0.00 | 49 | 1008.8 |
| 20260504195013 | 59 | 9 | 1.7 | 3.5 | 0.00 | 0.00 | 0.00 | 49 | 1008.7 |
| 20260504194013 | 59 | 339 | 1.7 | 6.1 | 0.00 | 0.00 | 0.00 | 51 | 1008.9 |
| 20260504193513 | 59 | 81 | 1.7 | 8.7 | 0.00 | 0.00 | 0.00 | 49 | 1009.0 |
| 20260504192513 | 60 | 46 | 1.7 | 5.2 | 0.00 | 0.00 | 0.00 | 49 | 1009.1 |
| 20260504192013 | 60 | 74 | 1.7 | 6.1 | 0.00 | 0.00 | 0.00 | 49 | 1009.0 |
| 20260504191514 | 60 | 50 | 1.7 | 6.1 | 0.00 | 0.00 | 0.00 | 46 | 1009.0 |
| 20260504191014 | 60 | 59 | 1.7 | 6.1 | 0.00 | 0.00 | 0.00 | 48 | 1009.0 |
| 20260504185513 | 60 | 24 | 1.7 | 5.2 | 0.00 | 0.00 | 0.00 | 48 | 1009.1 |
| 20260504185013 | 60 | 263 | 2.6 | 7.8 | 0.00 | 0.00 | 0.00 | 48 | 1009.0 |
| 20260504184514 | 60 | 302 | 2.6 | 7.8 | 0.00 | 0.00 | 0.00 | 46 | 1009.1 |
| 20260504184014 | 60 | 302 | 1.7 | 4.3 | 0.00 | 0.00 | 0.00 | 47 | 1009.1 |
| 20260504183513 | 61 | 325 | 1.7 | 7.0 | 0.00 | 0.00 | 0.00 | 46 | 1009.1 |
| 20260504183013 | 60 | 61 | 2.6 | 7.8 | 0.00 | 0.00 | 0.00 | 46 | 1009.0 |
| 20260504182513 | 60 | 112 | 1.7 | 8.7 | 0.00 | 0.00 | 0.00 | 50 | 1009.1 |
| 20260504182013 | 60 | 116 | 1.7 | 8.7 | 0.00 | 0.00 | 0.00 | 46 | 1009.2 |
| 20260504181514 | 60 | 33 | 1.7 | 6.1 | 0.00 | 0.00 | 0.00 | 47 | 1009.1 |
| 20260504181013 | 58 | 332 | 1.7 | 6.1 | 0.00 | 0.00 | 0.00 | 49 | 1009.3 |
| 20260504180513 | 58 | 315 | 2.6 | 7.8 | 0.00 | 0.00 | 0.00 | 49 | 1009.4 |
| 20260504175513 | 58 | 66 | 2.6 | 11.3 | 0.00 | 0.00 | 0.00 | 49 | 1009.4 |
| 20260504175013 | 59 | 260 | 2.6 | 8.7 | 0.00 | 0.00 | 0.00 | 50 | 1009.4 |
| 20260504174513 | 58 | 323 | 1.7 | 8.7 | 0.00 | 0.00 | 0.00 | 49 | 1009.4 |
| 20260504174013 | 60 | 196 | 1.7 | 6.1 | 0.00 | 0.00 | 0.00 | 47 | 1009.6 |
| 20260504173513 | 60 | 317 | 1.7 | 7.0 | 0.00 | 0.00 | 0.00 | 49 | 1009.6 |
| 20260504173014 | 59 | 110 | 1.7 | 7.0 | 0.00 | 0.00 | 0.00 | 50 | 1009.6 |
| 20260504172513 | 58 | 113 | 1.7 | 9.6 | 0.00 | 0.00 | 0.00 | 49 | 1009.6 |
| 20260504172013 | 57 | 265 | 1.7 | 9.6 | 0.00 | 0.00 | 0.00 | 51 | 1009.7 |
| 20260504171513 | 56 | 299 | 1.7 | 5.2 | 0.00 | 0.00 | 0.00 | 51 | 1009.8 |
| 20260504171013 | 56 | 285 | 1.7 | 3.5 | 0.00 | 0.00 | 0.00 | 51 | 1010.0 |
| 20260504170513 | 57 | 331 | 1.7 | 4.3 | 0.00 | 0.00 | 0.00 | 51 | 1009.9 |
| 20260504151013 | 53 | 95 | 1.7 | 5.2 | 0.00 | 0.00 | 0.00 | 57 | 1010.7 |
| 20260504150513 | 53 | 322 | 2.6 | 7.0 | 0.00 | 0.00 | 0.00 | 55 | 1010.7 |
| 20260504140513 | 55 | 83 | 1.7 | 4.3 | 0.00 | 0.00 | 0.00 | 52 | 1010.7 |
| 20260504130513 | 51 | 247 | 1.7 | 4.3 | 0.00 | 0.00 | 0.00 | 54 | 1011.1 |
| 20260504100514 | 35 | 13 | 0.0 | 1.7 | 0.00 | 0.00 | 0.00 | 84 | 1011.2 |
| 20260504081514 | 39 | 28 | 0.9 | 4.3 | 0.00 | 0.00 | 0.00 | 80 | 1011.3 |
| 20260504081014 | 39 | 157 | 0.9 | 7.8 | 0.00 | 0.00 | 0.00 | 80 | 1011.3 |
| 20260504080514 | 39 | 176 | 0.9 | 7.8 | 0.00 | 0.00 | 0.00 | 80 | 1011.4 |
| 20260504050014 | 40 | 229 | 0.9 | 2.6 | 0.00 | 0.01 | 0.00 | 71 | 1012.1 |
| 20260504045514 | 40 | 242 | 0.9 | 3.5 | 0.00 | 0.02 | 0.00 | 71 | 1012.0 |
| 20260504045015 | 40 | 227 | 0.9 | 3.5 | 0.00 | 0.02 | 0.00 | 70 | 1012.0 |
| 20260504044514 | 40 | 182 | 1.7 | 3.5 | 0.00 | 0.02 | 0.00 | 71 | 1012.1 |
| 20260504044014 | 40 | 235 | 1.7 | 3.5 | 0.00 | 0.02 | 0.00 | 70 | 1012.0 |
| 20260504043014 | 40 | 16 | 0.9 | 3.5 | 0.00 | 0.02 | 0.00 | 71 | 1012.1 |
| 20260504042014 | 40 | 117 | 1.7 | 7.0 | 0.00 | 0.02 | 0.00 | 69 | 1012.1 |
| 20260504041514 | 40 | 225 | 1.7 | 7.8 | 0.00 | 0.02 | 0.00 | 68 | 1012.1 |
| 20260504041014 | 39 | 197 | 1.7 | 4.3 | 0.00 | 0.02 | 0.00 | 68 | 1012.0 |
| 20260504040514 | 39 | 110 | 0.9 | 3.5 | 0.00 | 0.02 | 0.00 | 68 | 1011.9 |
| 20260504035514 | 39 | 165 | 0.9 | 5.2 | 0.00 | 0.02 | 0.02 | 67 | 1011.8 |
| 20260504035014 | 39 | 71 | 0.9 | 3.5 | 0.00 | 0.02 | 0.02 | 66 | 1011.8 |
| 20260504034514 | 39 | 175 | 0.9 | 3.5 | 0.00 | 0.02 | 0.02 | 67 | 1011.7 |
| 20260504034014 | 39 | 145 | 0.9 | 3.5 | 0.00 | 0.02 | 0.02 | 66 | 1011.8 |
| 20260504033514 | 39 | 312 | 0.9 | 3.5 | 0.00 | 0.02 | 0.02 | 66 | 1011.7 |
| 20260504032514 | 39 | 221 | 1.7 | 7.0 | 0.00 | 0.02 | 0.02 | 66 | 1011.7 |
| 20260504032014 | 39 | 207 | 1.7 | 7.0 | 0.00 | 0.02 | 0.02 | 64 | 1011.7 |
| 20260504030514 | 39 | 101 | 0.9 | 2.6 | 0.00 | 0.02 | 0.02 | 64 | 1011.6 |
| 20260504030014 | 39 | 136 | 0.9 | 2.6 | 0.00 | 0.02 | 0.02 | 63 | 1011.5 |
| 20260504025514 | 39 | 122 | 0.9 | 4.3 | 0.00 | 0.02 | 0.02 | 62 | 1011.4 |
| 20260504025014 | 39 | 132 | 0.9 | 4.3 | 0.00 | 0.02 | 0.02 | 60 | 1011.4 |
| 20260504024515 | 40 | 146 | 0.9 | 4.3 | 0.00 | 0.02 | 0.02 | 60 | 1011.6 |
| 20260504023514 | 40 | 130 | 0.9 | 5.2 | 0.00 | 0.02 | 0.02 | 61 | 1011.7 |
| 20260504023014 | 40 | 168 | 1.7 | 5.2 | 0.00 | 0.02 | 0.02 | 59 | 1011.7 |
| 20260504022514 | 40 | 205 | 0.9 | 3.5 | 0.00 | 0.02 | 0.02 | 59 | 1011.8 |
| 20260504022014 | 40 | 153 | 0.9 | 4.3 | 0.00 | 0.02 | 0.02 | 60 | 1011.8 |
| 20260504021514 | 40 | 198 | 1.7 | 5.2 | 0.00 | 0.02 | 0.02 | 59 | 1012.0 |
| 20260504021014 | 40 | 171 | 1.7 | 5.2 | 0.00 | 0.02 | 0.02 | 60 | 1012.0 |
| 20260504020514 | 40 | 235 | 1.7 | 5.2 | 0.00 | 0.02 | 0.02 | 60 | 1012.0 |
| 20260504020015 | 40 | 213 | 0.9 | 4.3 | 0.00 | 0.02 | 0.02 | 59 | 1011.9 |
| 20260504015514 | 40 | 242 | 1.7 | 6.1 | 0.00 | 0.02 | 0.02 | 59 | 1011.9 |
| 20260504015014 | 40 | 150 | 1.7 | 6.1 | 0.00 | 0.02 | 0.02 | 59 | 1011.8 |
| 20260504014514 | 39 | 82 | 1.7 | 5.2 | 0.00 | 0.02 | 0.02 | 58 | 1011.7 |
| 20260504014014 | 39 | 32 | 0.9 | 4.3 | 0.00 | 0.02 | 0.02 | 61 | 1011.7 |
| 20260504013014 | 39 | 109 | 0.9 | 2.6 | 0.00 | 0.02 | 0.02 | 62 | 1011.7 |
| 20260504012514 | 39 | 74 | 0.9 | 4.3 | 0.00 | 0.02 | 0.02 | 62 | 1011.6 |
| 20260504012014 | 39 | 319 | 1.7 | 4.3 | 0.00 | 0.02 | 0.02 | 59 | 1011.6 |
| 20260504011514 | 40 | 221 | 0.9 | 5.2 | 0.00 | 0.02 | 0.02 | 58 | 1011.4 |
| 20260504011014 | 40 | 139 | 0.9 | 5.2 | 0.00 | 0.02 | 0.02 | 55 | 1011.4 |
| 20260504010514 | 40 | 200 | 0.9 | 3.5 | 0.00 | 0.02 | 0.02 | 56 | 1011.4 |
| 20260504010014 | 40 | 152 | 0.9 | 1.7 | 0.00 | 0.03 | 0.02 | 57 | 1011.2 |
| 20260504005514 | 40 | 153 | 1.7 | 3.5 | 0.00 | 0.03 | 0.02 | 56 | 1011.2 |
| 20260504005014 | 40 | 193 | 0.9 | 3.5 | 0.00 | 0.03 | 0.02 | 54 | 1011.2 |
| 20260504004514 | 40 | 280 | 0.9 | 3.5 | 0.00 | 0.03 | 0.02 | 55 | 1011.2 |
| 20260504004014 | 41 | 36 | 1.7 | 6.1 | 0.00 | 0.03 | 0.02 | 54 | 1011.0 |
| 20260504003513 | 41 | 186 | 1.7 | 5.2 | 0.00 | 0.03 | 0.02 | 55 | 1010.9 |
| 20260504003013 | 41 | 32 | 1.7 | 7.0 | 0.00 | 0.03 | 0.02 | 51 | 1010.7 |
| 20260504002513 | 41 | 140 | 1.7 | 6.1 | 0.00 | 0.03 | 0.02 | 53 | 1010.7 |
| 20260504001513 | 41 | 360 | 1.7 | 5.2 | 0.00 | 0.03 | 0.02 | 54 | 1010.5 |
| 20260504001013 | 40 | 303 | 1.7 | 5.2 | 0.00 | 0.03 | 0.02 | 55 | 1010.4 |
| 20260504000513 | 40 | 144 | 0.9 | 3.5 | 0.00 | 0.03 | 0.02 | 52 | 1010.4 |
| 20260503235513 | 41 | 262 | 1.7 | 6.1 | 0.00 | 0.03 | 0.02 | 55 | 1010.3 |
| 20260503235013 | 41 | 38 | 1.7 | 6.1 | 0.00 | 0.03 | 0.02 | 52 | 1010.3 |
| 20260503234513 | 40 | 250 | 0.9 | 3.5 | 0.00 | 0.03 | 0.02 | 57 | 1010.2 |
| 20260503234013 | 41 | 136 | 0.9 | 3.5 | 0.00 | 0.03 | 0.02 | 56 | 1010.3 |
| 20260503233013 | 41 | 271 | 0.9 | 3.5 | 0.00 | 0.03 | 0.02 | 56 | 1010.2 |
| 20260503232513 | 41 | 159 | 0.9 | 3.5 | 0.00 | 0.03 | 0.02 | 54 | 1010.2 |
| 20260503232013 | 41 | 10 | 0.9 | 3.5 | 0.00 | 0.03 | 0.02 | 51 | 1010.2 |
| 20260503231513 | 41 | 13 | 0.9 | 3.5 | 0.00 | 0.03 | 0.02 | 53 | 1010.0 |
| 20260503231013 | 41 | 168 | 0.9 | 4.3 | 0.00 | 0.03 | 0.02 | 54 | 1010.0 |
| 20260503230513 | 42 | 168 | 0.9 | 4.3 | 0.00 | 0.03 | 0.02 | 55 | 1010.0 |
| 20260503225513 | 42 | 261 | 1.7 | 7.8 | 0.00 | 0.03 | 0.02 | 54 | 1009.9 |
| 20260503224513 | 42 | 234 | 1.7 | 3.5 | 0.00 | 0.03 | 0.02 | 51 | 1009.8 |
| 20260503224013 | 43 | 165 | 0.9 | 4.3 | 0.00 | 0.03 | 0.02 | 53 | 1009.9 |
| 20260503223514 | 43 | 120 | 0.9 | 2.6 | 0.00 | 0.03 | 0.02 | 50 | 1009.8 |
| 20260503223013 | 43 | 248 | 1.7 | 2.6 | 0.00 | 0.03 | 0.02 | 51 | 1009.9 |
| 20260503222013 | 43 | 82 | 1.7 | 5.2 | 0.00 | 0.03 | 0.02 | 50 | 1009.7 |
| 20260503221513 | 43 | 174 | 2.6 | 6.1 | 0.00 | 0.03 | 0.02 | 50 | 1009.7 |
| 20260503221013 | 43 | 192 | 2.6 | 5.2 | 0.00 | 0.03 | 0.02 | 52 | 1009.7 |
| 20260503220013 | 43 | 248 | 1.7 | 7.0 | 0.00 | 0.04 | 0.02 | 52 | 1009.8 |
| 20260503215513 | 42 | 245 | 1.7 | 9.6 | 0.00 | 0.04 | 0.02 | 54 | 1009.8 |
| 20260503215013 | 43 | 287 | 1.7 | 9.6 | 0.00 | 0.04 | 0.02 | 51 | 1009.8 |
| 20260503214513 | 43 | 269 | 1.7 | 7.0 | 0.00 | 0.04 | 0.02 | 53 | 1009.7 |
| 20260503213513 | 42 | 92 | 1.7 | 6.1 | 0.00 | 0.04 | 0.02 | 53 | 1009.7 |
| 20260503213013 | 42 | 277 | 1.7 | 4.3 | 0.00 | 0.04 | 0.02 | 52 | 1009.8 |
| 20260503212513 | 43 | 88 | 1.7 | 5.2 | 0.00 | 0.04 | 0.02 | 51 | 1009.7 |
| 20260503212013 | 42 | 279 | 1.7 | 5.2 | 0.00 | 0.04 | 0.02 | 51 | 1009.7 |
| 20260503211513 | 42 | 160 | 1.7 | 10.4 | 0.00 | 0.04 | 0.02 | 54 | 1009.9 |
| 20260503211013 | 42 | 316 | 1.7 | 10.4 | 0.00 | 0.04 | 0.02 | 53 | 1009.8 |
| 20260503210513 | 43 | 202 | 2.6 | 7.0 | 0.00 | 0.04 | 0.02 | 53 | 1009.8 |
| 20260503210013 | 43 | 229 | 2.6 | 7.8 | 0.00 | 0.04 | 0.02 | 52 | 1009.8 |
| 20260503205013 | 42 | 267 | 1.7 | 6.1 | 0.00 | 0.04 | 0.02 | 53 | 1009.8 |
| 20260503204513 | 43 | 349 | 1.7 | 7.0 | 0.00 | 0.04 | 0.02 | 53 | 1009.8 |
| 20260503203513 | 42 | 175 | 2.6 | 8.7 | 0.00 | 0.04 | 0.02 | 54 | 1010.0 |
| 20260503203013 | 42 | 236 | 2.6 | 9.6 | 0.00 | 0.04 | 0.02 | 53 | 1009.9 |
| 20260503202513 | 43 | 304 | 1.7 | 9.6 | 0.00 | 0.04 | 0.02 | 52 | 1010.0 |
| 20260503202013 | 43 | 142 | 1.7 | 7.0 | 0.00 | 0.04 | 0.02 | 54 | 1009.9 |
| 20260503201513 | 42 | 150 | 1.7 | 7.0 | 0.00 | 0.04 | 0.02 | 55 | 1009.9 |
| 20260503201013 | 42 | 86 | 1.7 | 4.3 | 0.00 | 0.04 | 0.02 | 55 | 1010.0 |